Newburgh, NY

7:51 AM EDT on April 22, 2018 (GMT -0400)
Stewart International

Weather History for KSWF - March, 2014

Change the Weather History Date:

Friday, March 7, 2014

  Actual Average Record
Temperature  
Mean Temperature 22 °F -  
Max Temperature 35 °F 40 °F 62 °F (2009)
Min Temperature 8 °F 23 °F -4 °F (2003)
Degree Days  
Heating Degree Days 44    
Moisture  
Dew Point 15 °F    
Average Humidity 70    
Maximum Humidity 85    
Minimum Humidity 59    
Precipitation  
Precipitation 0.00 in - - ()
Sea Level Pressure  
Sea Level Pressure 30.24 in    
Wind  
Wind Speed 0 mph (North)    
Max Wind Speed 6 mph    
Max Gust Speed -    
Visibility 10 miles    
Events      
Averages and records for this station are not official NWS values.
T = Trace of Precipitation, MM = Missing Value Source: NWS Daily Summary

Daily Weather History Graph

Daily Weather History Graph

Search for Another Location

Airport or City:

Astronomy

Mar. 07, 2014 Rise Set
Actual Time 6:21 AM EST 5:53 PM EST
Civil Twilight 5:53 AM EST 6:21 PM EST
Nautical Twilight 5:21 AM EST 6:53 PM EST
Astronomical Twilight 4:49 AM EST 7:26 PM EST
Moon 10:07 AM EST (3/7) 12:00 AM EST (3/7)
Length of Visible Light 12h 27m
Length of Day
11h 32m
Waxing Crescent, 42% of the Moon is Illuminated
Mar 7
Waxing Crescent
Mar 8
First Quarter
Mar 16
Full
Mar 23
Last Quarter
Mar 30
New

Hourly Weather History & Observations

Time (EST) Temp. Windchill Dew Point Humidity Pressure Visibility Wind Dir Wind Speed Gust Speed Precip Events Conditions
12:45 AM 14.0 °F - 5.0 °F 67% 30.47 in 10.0 mi Calm Calm - N/A   Clear
1:45 AM 12.2 °F - 5.0 °F 73% 30.45 in 10.0 mi Calm Calm - N/A   Clear
2:45 AM 8.6 °F - 5.0 °F 85% 30.40 in 10.0 mi Calm Calm - N/A   Clear
3:45 AM 8.6 °F - 3.2 °F 79% 30.40 in 10.0 mi Calm Calm - N/A   Clear
4:45 AM - - - N/A% 30.38 in 10.0 mi Calm Calm - N/A   Clear
4:50 AM 10.4 °F - 5.0 °F 79% 30.38 in 10.0 mi Calm Calm - N/A   Mostly Cloudy
5:45 AM 14.0 °F - 8.6 °F 79% 30.37 in 10.0 mi Calm Calm - N/A   Overcast
6:45 AM 15.8 °F - 8.6 °F 73% 30.38 in 10.0 mi Calm Calm - N/A   Overcast
7:45 AM 17.6 °F - 8.6 °F 68% 30.34 in 10.0 mi Calm Calm - N/A   Overcast
8:50 AM 19.4 °F - 10.4 °F 68% 30.34 in 10.0 mi Calm Calm - N/A   Overcast
9:45 AM 19.4 °F - 10.4 °F 68% 30.30 in 10.0 mi Calm Calm - N/A   Overcast
10:45 AM 26.6 °F - 14.0 °F 59% 30.29 in 10.0 mi Calm Calm - N/A   Overcast
11:45 AM 32.0 °F - 21.2 °F 64% 30.26 in 10.0 mi Calm Calm - N/A   Overcast
12:45 PM 32.0 °F - 21.2 °F 64% 30.20 in 10.0 mi Calm Calm - N/A   Mostly Cloudy
1:45 PM 35.6 °F - 23.0 °F 60% 30.17 in 10.0 mi Calm Calm - N/A   Mostly Cloudy
2:45 PM 33.8 °F 29.6 °F 23.0 °F 65% 30.12 in 10.0 mi Variable 4.6 mph - N/A   Scattered Clouds
3:45 PM 35.6 °F 30.7 °F 23.0 °F 60% 30.11 in 10.0 mi Variable 5.8 mph - N/A   Scattered Clouds
6:45 PM 32.0 °F - 23.0 °F 69% 30.05 in 10.0 mi Calm Calm - N/A   Mostly Cloudy
8:45 PM 33.8 °F - 23.0 °F 65% 30.02 in 10.0 mi Calm Calm - N/A   Overcast
9:45 PM 33.8 °F - 24.8 °F 70% 30.01 in 10.0 mi Calm Calm - N/A   Overcast
10:45 PM 32.0 °F - 24.8 °F 75% 29.97 in 10.0 mi Calm Calm - N/A   Overcast
11:45 PM 32.0 °F - 24.8 °F 75% 29.94 in 10.0 mi Calm Calm - N/A   Overcast